Hourly Weather Adymyanishki

Today, 7 March, Sunday

Time Temperature Precipitation Wind Pressure Humidity
00:00 -4°C° 0 mm 8 mps 742 mmHg 71%
01:00 -4°C° 0 mm 8 mps 740 mmHg 79%
02:00 -4°C° 0 mm 9 mps 739 mmHg 87%
03:00 -4°C° 0.1 mm 9 mps 738 mmHg 90%
04:00 -4°C° 0.1 mm 9 mps 737 mmHg 93%
05:00 -4°C° 0.1 mm 8 mps 737 mmHg 96%
06:00 -4°C° 1 mm 7 mps 736 mmHg 94%
07:00 -5°C° 1 mm 6 mps 736 mmHg 92%
08:00 -4°C° 1 mm 4 mps 736 mmHg 91%
09:00 -5°C° 0.2 mm 6 mps 736 mmHg 81%
10:00 -5°C° 0.2 mm 8 mps 736 mmHg 71%
11:00 -4°C° 0.2 mm 10 mps 736 mmHg 61%
12:00 -4°C° 0.1 mm 9 mps 736 mmHg 57%
13:00 -4°C° 0.1 mm 9 mps 736 mmHg 53%
14:00 -4°C° 0.1 mm 8 mps 736 mmHg 50%
15:00 -5°C° 0.1 mm 8 mps 736 mmHg 54%
16:00 -4°C° 0.1 mm 7 mps 736 mmHg 59%
17:00 -4°C° 0.1 mm 7 mps 736 mmHg 63%
18:00 -5°C° 0 mm 6 mps 737 mmHg 64%
19:00 -6°C° 0 mm 6 mps 737 mmHg 65%
20:00 -8°C° 0 mm 6 mps 737 mmHg 66%
21:00 -8°C° 0.1 mm 6 mps 737 mmHg 71%
22:00 -8°C° 0.1 mm 6 mps 737 mmHg 75%
23:00 -8°C° 0.1 mm 6 mps 737 mmHg 80%

Tomorrow, 8 March, Monday

Time Temperature Precipitation Wind Pressure Humidity
00:00 -8°C° 0.2 mm 6 mps 737 mmHg 80%
01:00 -8°C° 0.2 mm 6 mps 738 mmHg 80%
02:00 -8°C° 0.2 mm 6 mps 738 mmHg 80%
03:00 -9°C° 0 mm 6 mps 739 mmHg 79%
04:00 -8°C° 0 mm 5 mps 739 mmHg 78%
05:00 -9°C° 0 mm 4 mps 740 mmHg 78%
06:00 -9°C° 0 mm 4 mps 740 mmHg 79%
07:00 -9°C° 0 mm 4 mps 741 mmHg 80%
08:00 -9°C° 0 mm 4 mps 742 mmHg 81%
09:00 -8°C° 0 mm 4 mps 742 mmHg 78%
10:00 -8°C° 0 mm 4 mps 743 mmHg 75%
11:00 -7°C° 0 mm 4 mps 743 mmHg 72%
12:00 -7°C° 0 mm 5 mps 744 mmHg 69%
13:00 -7°C° 0 mm 5 mps 744 mmHg 66%
14:00 -6°C° 0 mm 5 mps 745 mmHg 64%
15:00 -7°C° 0 mm 4 mps 745 mmHg 65%
16:00 -7°C° 0 mm 4 mps 745 mmHg 65%
17:00 -7°C° 0 mm 4 mps 745 mmHg 66%
18:00 -7°C° 0 mm 3 mps 746 mmHg 70%
19:00 -8°C° 0 mm 3 mps 747 mmHg 74%
20:00 -7°C° 0 mm 2 mps 747 mmHg 77%
21:00 -8°C° 0 mm 2 mps 748 mmHg 79%
22:00 -8°C° 0 mm 2 mps 748 mmHg 81%
23:00 -8°C° 0 mm 2 mps 748 mmHg 82%

Day after tomorrow, 9 March, Tuesday

Time Temperature Precipitation Wind Pressure Humidity
00:00 -8°C° 0 mm 2 mps 749 mmHg 84%
01:00 -9°C° 0 mm 2 mps 749 mmHg 86%
02:00 -9°C° 0 mm 2 mps 749 mmHg 88%
03:00 -10°C° 0 mm 2 mps 749 mmHg 89%
04:00 -10°C° 0 mm 2 mps 750 mmHg 90%
05:00 -10°C° 0 mm 2 mps 750 mmHg 91%
06:00 -10°C° 0 mm 2 mps 750 mmHg 89%
07:00 -10°C° 0 mm 2 mps 751 mmHg 87%
08:00 -10°C° 0 mm 2 mps 751 mmHg 84%
09:00 -8°C° 0 mm 1 mps 751 mmHg 75%
10:00 -7°C° 0 mm 1 mps 751 mmHg 66%
11:00 -6°C° 0 mm 1 mps 752 mmHg 57%
12:00 -4°C° 0 mm 1 mps 752 mmHg 53%
13:00 -3°C° 0 mm 1 mps 752 mmHg 50%
14:00 -4°C° 0 mm 2 mps 752 mmHg 46%
15:00 -5°C° 0 mm 2 mps 751 mmHg 49%
16:00 -5°C° 0 mm 2 mps 751 mmHg 51%
17:00 -5°C° 0 mm 2 mps 751 mmHg 53%
18:00 -5°C° 0 mm 2 mps 751 mmHg 57%
19:00 -5°C° 0 mm 2 mps 751 mmHg 60%
20:00 -6°C° 0 mm 2 mps 751 mmHg 64%
21:00 -6°C° 0 mm 2 mps 751 mmHg 64%
22:00 -7°C° 0 mm 3 mps 750 mmHg 64%
23:00 -7°C° 0 mm 3 mps 750 mmHg 64%

10 March, Wednesday

Time Temperature Precipitation Wind Pressure Humidity
00:00 -8°C° 0 mm 4 mps 750 mmHg 64%
01:00 -7°C° 0 mm 4 mps 750 mmHg 64%
02:00 -7°C° 0 mm 4 mps 749 mmHg 64%
03:00 -7°C° 0.1 mm 4 mps 749 mmHg 73%
04:00 -7°C° 0.1 mm 5 mps 749 mmHg 82%
05:00 -7°C° 0.1 mm 5 mps 748 mmHg 90%
06:00 -7°C° 0.2 mm 5 mps 748 mmHg 90%
07:00 -7°C° 0.2 mm 5 mps 748 mmHg 90%
08:00 -6°C° 0.2 mm 6 mps 748 mmHg 90%
09:00 -6°C° 0.1 mm 5 mps 749 mmHg 87%
10:00 -5°C° 0.1 mm 5 mps 749 mmHg 85%
11:00 -4°C° 0.1 mm 5 mps 749 mmHg 82%
12:00 -4°C° 0.1 mm 5 mps 749 mmHg 81%
13:00 -2°C° 0.1 mm 5 mps 749 mmHg 79%
14:00 -2°C° 0.1 mm 4 mps 749 mmHg 77%
15:00 -2°C° 0.2 mm 4 mps 748 mmHg 81%
16:00 -1°C° 0.2 mm 3 mps 748 mmHg 84%
17:00 -1°C° 0.2 mm 3 mps 748 mmHg 87%
18:00 -2°C° 0.4 mm 2 mps 748 mmHg 90%
19:00 -2°C° 0.4 mm 2 mps 748 mmHg 92%
20:00 -1°C° 0.4 mm 1 mps 748 mmHg 95%
21:00 -1°C° 0.3 mm 1 mps 748 mmHg 94%
22:00 -1°C° 0.3 mm 1 mps 748 mmHg 93%
23:00 -2°C° 0.3 mm 1 mps 748 mmHg 92%

11 March, Thursday

Time Temperature Precipitation Wind Pressure Humidity
00:00 -2°C° 0 mm 1 mps 748 mmHg 91%
01:00 -4°C° 0 mm 2 mps 747 mmHg 90%
02:00 -4°C° 0 mm 2 mps 747 mmHg 88%
03:00 -4°C° 0 mm 2 mps 746 mmHg 85%
04:00 -4°C° 0 mm 2 mps 746 mmHg 81%
05:00 -5°C° 0 mm 3 mps 745 mmHg 77%
06:00 -5°C° 0 mm 3 mps 745 mmHg 74%
07:00 -5°C° 0 mm 4 mps 744 mmHg 70%
08:00 -5°C° 0 mm 4 mps 744 mmHg 67%
09:00 -5°C° 0 mm 5 mps 743 mmHg 70%
10:00 -5°C° 0 mm 5 mps 742 mmHg 73%
11:00 -4°C° 0 mm 5 mps 742 mmHg 76%
12:00 -4°C° 0.3 mm 6 mps 741 mmHg 81%
13:00 -4°C° 0.3 mm 6 mps 740 mmHg 86%
14:00 -4°C° 0.3 mm 7 mps 739 mmHg 91%
15:00 -4°C° 0.4 mm 6 mps 738 mmHg 92%
16:00 -4°C° 0.4 mm 6 mps 737 mmHg 94%
17:00 -4°C° 0.4 mm 6 mps 736 mmHg 95%
18:00 -3°C° 0.5 mm 6 mps 735 mmHg 95%
19:00 -3°C° 0.5 mm 6 mps 734 mmHg 96%
20:00 -3°C° 0.5 mm 7 mps 733 mmHg 96%
21:00 -2°C° 0.9 mm 6 mps 732 mmHg 97%
22:00 -2°C° 0.9 mm 6 mps 731 mmHg 97%
23:00 -1°C° 0.9 mm 6 mps 730 mmHg 97%

12 March, Friday

Time Temperature Precipitation Wind Pressure Humidity
00:00 +1°C° 0.9 mm 5 mps 729 mmHg 97%
01:00 +1°C° 0.9 mm 5 mps 728 mmHg 97%
02:00 +1°C° 0.9 mm 5 mps 727 mmHg 96%
03:00 +1°C° 0.3 mm 5 mps 727 mmHg 95%
04:00 +1°C° 0.3 mm 5 mps 727 mmHg 94%
05:00 +1°C° 0.3 mm 5 mps 726 mmHg 92%
06:00 +1°C° 0.5 mm 6 mps 727 mmHg 94%
07:00 +1°C° 0.5 mm 6 mps 727 mmHg 95%
08:00 -1°C° 0.5 mm 7 mps 727 mmHg 96%
09:00 0°C° 0.1 mm 7 mps 727 mmHg 93%
10:00 0°C° 0.1 mm 7 mps 728 mmHg 89%
11:00 0°C° 0.1 mm 7 mps 728 mmHg 85%
12:00 0°C° 0.1 mm 7 mps 728 mmHg 84%
13:00 +2°C° 0.1 mm 7 mps 728 mmHg 83%
14:00 +1°C° 0.1 mm 8 mps 728 mmHg 82%
15:00 0°C° 0.3 mm 8 mps 728 mmHg 86%
16:00 0°C° 0.3 mm 8 mps 728 mmHg 91%
17:00 -1°C° 0.3 mm 8 mps 727 mmHg 95%
18:00 -1°C° 0.3 mm 8 mps 727 mmHg 94%
19:00 -1°C° 0.3 mm 8 mps 727 mmHg 94%
20:00 -1°C° 0.3 mm 8 mps 727 mmHg 94%
21:00 -1°C° 0.2 mm 8 mps 727 mmHg 94%
22:00 -1°C° 0.2 mm 8 mps 728 mmHg 95%
23:00 -1°C° 0.2 mm 7 mps 728 mmHg 95%
Show more